GW0098 Weather Reports


time (UTC)temp
F
wind
direction
speed
knots
gust
knots
rain 1hr
in
rain 24hr
in
rain mn
in
humidity
%
barometer
mb
20260510130053 65 0.0 0.0 0.00 0.01 0.01 88 1016.2
20260510124555 64 0.0 0.0 0.00 0.01 0.01 89 1015.5
20260510123056 64 0.0 0.0 0.00 0.01 0.01 88 1014.6
20260510121555 64 0.0 0.0 0.00 0.01 0.01 88 1013.9
20260510120057 64 0.0 0.0 0.00 0.01 0.01 89 1013.3
20260510114557 63 0.0 0.0 0.00 0.01 0.01 90 1013.1
20260510113058 63 0.0 0.0 0.00 0.01 0.01 90 1013.1
20260510111555 63 0.0 0.0 0.00 0.01 0.01 89 1013.4
20260510110057 63 0.0 0.0 0.00 0.01 0.01 88 1013.7
20260510104556 63 0.0 0.0 0.00 0.01 0.01 88 1013.5
20260510103058 63 0.0 0.0 0.00 0.01 0.01 88 1013.3
20260510101559 63 0.0 0.0 0.00 0.01 0.01 88 1013.2
20260510100125 63 0.0 0.0 0.00 0.01 0.01 86 1013.1
20260510094558 63 0.0 0.0 0.00 0.01 0.01 85 1013.4
20260510093100 64 0.0 0.0 0.00 0.01 0.01 85 1013.4
20260510091559 63 0.0 0.0 0.00 0.01 0.01 86 1012.1
20260510090055 63 0.0 0.0 0.00 0.01 0.01 88 1011.4
20260510084557 63 0.0 0.0 0.01 0.01 0.01 88 1010.9
20260510083102 63 0.0 0.0 0.01 0.01 0.01 88 1011.5
20260510081557 63 0.0 0.0 0.01 0.01 0.01 87 1012.3
20260510080059 64 0.0 0.0 0.00 0.00 0.00 83 1011.8
20260510074600 65 0.0 0.0 0.00 0.00 0.00 80 1011.4
20260510073057 66 0.0 0.0 0.00 0.00 0.00 77 1013.0
20260510071608 67 0.0 0.0 0.00 0.00 0.00 78 1014.2
20260510070058 68 0.0 0.0 0.00 0.00 0.00 75 1014.6
20260510064608 68 0.0 0.0 0.00 0.00 0.00 73 1014.3
20260510063051 68 0.0 0.0 0.00 0.00 0.00 70 1014.0
20260510061557 69 0.0 0.0 0.00 0.00 0.00 70 1013.2
20260510060054 68 0.0 0.0 0.00 0.00 0.00 66 1013.4
20260510054555 68 0.0 0.0 0.00 0.00 0.00 65 1012.7
20260510053052 68 0.0 0.0 0.00 0.00 0.00 65 1012.1
20260510051554 67 0.0 0.0 0.00 0.00 0.00 66 1011.8
20260510050056 68 0.0 0.0 0.00 0.00 0.00 67 1012.1
20260510044552 68 0.0 0.0 0.00 0.00 0.00 64 1012.4
20260510043057 68 0.0 0.0 0.00 0.00 0.00 63 1012.3
20260510041552 69 0.0 0.0 0.00 0.00 0.00 63 1012.1
20260510040059 70 0.0 0.0 0.00 0.00 0.00 60 1012.0
20260510034600 69 0.0 0.0 0.00 0.00 0.00 58 1011.4
20260510033113 69 0.0 0.0 0.00 0.00 0.00 59 1011.3
20260510031557 69 0.0 0.0 0.00 0.00 0.00 60 1011.2
20260510030055 70 0.0 0.0 0.00 0.00 0.00 59 1011.0
20260510024557 70 0.0 0.0 0.00 0.00 0.00 58 1010.4
20260510023052 70 0.0 0.0 0.00 0.00 0.00 56 1009.8
20260510021552 70 0.0 0.0 0.00 0.00 0.00 55 1009.7
20260510020053 71 0.0 0.0 0.00 0.00 0.00 54 1009.5
20260510014552 71 0.0 0.0 0.00 0.00 0.00 52 1009.4
20260510013054 72 0.0 0.0 0.00 0.00 0.00 52 1009.4
20260510011556 73 0.0 0.0 0.00 0.00 0.00 50 1009.4
20260510010054 74 0.0 0.0 0.00 0.00 0.00 47 1009.2
20260510004552 76 0.0 0.0 0.00 0.00 0.00 46 1009.0
20260510003111 78 0.0 0.0 0.00 0.00 0.00 41 1009.0
20260510001554 79 0.0 0.0 0.00 0.00 0.00 40 1009.0
20260510000100 80 0.0 0.0 0.00 0.00 0.00 37 1009.1
20260509234607 80 0.0 0.0 0.00 0.00 0.00 36 1009.3
20260509233053 81 0.0 0.0 0.00 0.00 0.00 34 1009.4
20260509231555 81 0.0 0.0 0.00 0.00 0.00 32 1009.4
20260509230059 81 0.0 0.0 0.00 0.00 0.00 36 1009.4
20260509224552 82 0.0 0.0 0.00 0.00 0.00 39 1009.4
20260509223058 82 0.0 0.0 0.00 0.00 0.00 38 1009.3
20260509221553 82 0.0 0.0 0.00 0.00 0.00 40 1009.6
20260509220056 83 0.0 0.0 0.00 0.00 0.00 38 1009.6
20260509214555 83 0.0 0.0 0.00 0.00 0.00 35 1009.6
20260509213058 83 0.0 0.0 0.00 0.00 0.00 34 1009.7
20260509211602 84 0.0 0.0 0.00 0.00 0.00 35 1009.9
20260509210056 84 0.0 0.0 0.00 0.00 0.00 35 1010.1
20260509204553 84 0.0 0.0 0.00 0.00 0.00 32 1010.2
20260509203055 84 0.0 0.0 0.00 0.00 0.00 37 1010.3
20260509201554 84 0.0 0.0 0.00 0.00 0.00 37 1010.4
20260509200056 84 0.0 0.0 0.00 0.00 0.00 35 1010.6
20260509194553 84 0.0 0.0 0.00 0.00 0.00 38 1010.9
20260509193055 84 0.0 0.0 0.00 0.00 0.00 34 1011.0
20260509191554 83 0.0 0.0 0.00 0.00 0.00 39 1011.1
20260509190053 83 0.0 0.0 0.00 0.00 0.00 51 1010.9
20260509184553 82 0.0 0.0 0.00 0.00 0.00 48 1011.2
20260509183138 82 0.0 0.0 0.00 0.00 0.00 48 1011.2
20260509181609 81 0.0 0.0 0.00 0.00 0.00 61 1011.3
20260509180054 80 0.0 0.0 0.00 0.00 0.00 61 1011.4
20260509174554 79 0.0 0.0 0.00 0.00 0.00 61 1011.5
20260509173104 78 0.0 0.0 0.00 0.00 0.00 63 1012.0
20260509171558 78 0.0 0.0 0.00 0.00 0.00 62 1012.1
20260509170056 77 0.0 0.0 0.00 0.00 0.00 63 1012.2
20260509164601 76 0.0 0.0 0.00 0.00 0.00 70 1012.3
20260509163059 75 0.0 0.0 0.00 0.00 0.00 73 1012.3
20260509161552 74 0.0 0.0 0.00 0.00 0.00 73 1012.1
20260509160052 74 0.0 0.0 0.00 0.00 0.00 74 1012.2
20260509154556 74 0.0 0.0 0.00 0.00 0.00 77 1012.1
20260509153055 73 0.0 0.0 0.00 0.00 0.00 76 1011.8
20260509151556 71 0.0 0.0 0.00 0.00 0.00 79 1012.0
20260509150052 69 0.0 0.0 0.00 0.00 0.00 81 1012.0
20260509144555 69 0.0 0.0 0.00 0.00 0.00 81 1012.3
20260509143057 68 0.0 0.0 0.00 0.00 0.00 83 1012.3
20260509141606 65 0.0 0.0 0.00 0.00 0.00 88 1012.2
20260509140059 64 0.0 0.0 0.00 0.00 0.00 92 1012.2
20260509134558 62 0.0 0.0 0.00 0.00 0.00 94 1012.2
20260509133058 61 0.0 0.0 0.00 0.00 0.00 95 1011.9
20260509131553 60 0.0 0.0 0.00 0.00 0.00 96 1011.6